New York Harbor Entrance NM SE of Breezy Point NY (44065)

Conditions for Monday

Daily
Weekly
Monthly
Marine Data Graph

Marine & Boating Location Search

Enter a coastal zip code for marine weather.

General Information

Location: 40.369 -73.703
Buoy Type: 3-meter discus buoy
Buoy Hull: 3D63
Payload: ARES payload
Owned by: NDBC
Windspeed: Measured by obtained from anemometer
Sea Surface: Measured by Intake
Note: Right whales are active off NY from November to April.  Speed restrictions of 10 knots apply to vessels 65 feet or greater within the vicinity of this station between November 1 and April 30.  To learn more about right whales and rules protecting them, go to: http://www.nmfs.noaa.gov/pr/shipstrike

Weather and Wave Data

Time Temp Humidity Wind Dominant Wave Wind Wave Wave Swell Pressure
  Air
(°F)
Water
(°F)
  Dir Speed
(kts)
Speed
(mph)
Period
(sec)
Height
(ft)
Range
(ft)
Period
(sec)
Height
(ft)
Range
(ft)
Period
(sec)
Height
(ft)
Range
(ft)
Atmo.
(in)
Tend.
(in)
20:50 59 61 76 NE 29.2 33.6 10 13.78 exactly 13.8 6 8.20 7.38 - 9.02 10 11.48 10.66 - 12.30 29.61 -0.04
21:50 58 61 76 NE 29.2 33.6 11 13.12 exactly 13.1 8 9.84 9.02 - 10.66 11 8.20 7.38 - 9.02 29.60 -0.04
22:50 58 61 73 NNE 29.2 33.6 11 14.11 exactly 14.1 8 9.84 9.02 - 10.66 11 11.48 10.66 - 12.30 29.59 -0.03
23:50 57 60 78 NNE 29.2 33.6 12 12.47 exactly 12.5 8 8.20 7.38 - 9.02 12 9.84 9.02 - 10.66 29.57 -0.04
00:50 56 60 85 NNE 27.2 31.3 11 11.48 exactly 11.5 5 6.56 5.74 - 7.38 11 9.84 9.02 - 10.66 29.55 -0.06
01:50 56 60 84 NNE 27.2 31.3 10 13.78 exactly 13.8 7 8.20 7.38 - 9.02 10 11.48 10.66 - 12.30 29.53 -0.06
02:50 55 60 89 North 27.2 31.3 11 12.47 exactly 12.5 8 8.20 7.38 - 9.02 11 9.84 9.02 - 10.66 29.49 -0.08
03:50 55 60 90 North 29.2 33.6 11 13.12 exactly 13.1 7 6.56 5.74 - 7.38 11 11.48 10.66 - 12.30 29.42 -0.12
04:50 55 60 92 North 29.2 33.6 11 13.78 exactly 13.8 6 8.20 7.38 - 9.02 11 11.48 10.66 - 12.30 29.36 -0.17
05:50 56 60 90 NNE 31.1 35.8 11 12.80 exactly 12.8 7 8.20 7.38 - 9.02 11 9.84 9.02 - 10.66 29.31 -0.17
06:50 56 60 94 NNE 33.1 38.0 12 13.78 exactly 13.8 8 8.20 7.38 - 9.02 12 11.48 10.66 - 12.30 29.25 -0.17
07:50 56 60 95 NNE 35.0 40.3 11 14.44 exactly 14.4 8 8.20 7.38 - 9.02 11 11.48 10.66 - 12.30 29.20 -0.16
08:50 56 60 96 NNE 35.0 40.3 13 15.75 exactly 15.7 8 9.84 9.02 - 10.66 13 13.12 12.30 - 13.94 29.15 -0.17
09:50 57 60 97 NNE 36.9 42.5 12 15.09 exactly 15.1 7 9.84 9.02 - 10.66 12 11.48 10.66 - 12.30 29.07 -0.18
10:50 58 60 97 NNE 35.0 40.3 13 16.73 exactly 16.7 8 11.48 10.66 - 12.30 13 13.12 12.30 - 13.94 29.01 -0.19
11:50 59 59 95 NNE 36.9 42.5 - - - - - - 28.92 -0.22
12:50 59 59 98 NNE 38.9 44.7 14 18.70 exactly 18.7 6 11.48 10.66 - 12.30 14 14.76 13.94 - 15.58 28.80 -0.27
13:50 60 59 95 NNE 42.8 49.2 13 19.36 exactly 19.4 8 13.12 12.30 - 13.94 13 14.76 13.94 - 15.58 28.67 -0.35
14:50 60 59 100 NNE 38.9 44.7 15 22.97 exactly 23.0 8 13.12 12.30 - 13.94 15 19.69 18.86 - 20.51 28.59 -0.34
15:50 62 59 99 NE 42.8 49.2 15 25.59 exactly 25.6 7 13.12 12.30 - 13.94 15 21.33 20.51 - 22.15 28.46 -0.35
16:50 63 60 98 NE 46.7 53.7 14 27.23 exactly 27.2 7 16.40 15.58 - 17.22 14 21.33 20.51 - 22.15 28.35 -0.32
17:50 62 60 98 ENE 42.8 49.2 15 29.86 exactly 29.9 8 16.40 15.58 - 17.22 15 24.61 23.79 - 25.43 28.30 -0.29
18:50 60 60 96 East 42.8 49.2 15 30.84 exactly 30.8 8 14.76 13.94 - 15.58 15 26.25 25.43 - 27.07 28.34 -0.12
19:50 59 60 89 ESE 46.7 53.7 15 29.20 exactly 29.2 7 16.40 15.58 - 17.22 15 24.61 23.79 - 25.43 28.43 +0.08
20:50 58 60 90 ESE 44.7 51.5 14 32.48 exactly 32.5 9 19.69 18.86 - 20.51 14 24.61 23.79 - 25.43 28.55 +0.25
21:50 58 60 83 SE 44.7 51.5 15 28.87 exactly 28.9 10 16.40 15.58 - 17.22 15 22.97 22.15 - 23.79 28.67 +0.33
22:50 56 60 89 SE 38.9 44.7 16 28.54 exactly 28.5 7 14.76 13.94 - 15.58 16 24.61 23.79 - 25.43 28.80 +0.37
23:50 57 60 80 SSE 36.9 42.5 15 22.31 exactly 22.3 7 16.40 15.58 - 17.22 15 16.40 15.58 - 17.22 28.89 +0.35
00:50 57 60 76 SSE 35.0 40.3 11 23.95 exactly 24.0 11 19.69 18.86 - 20.51 14 13.12 12.30 - 13.94 28.98 +0.30
01:50 57 60 74 SSE 31.1 35.8 11 20.34 exactly 20.3 10 14.76 13.94 - 15.58 11 13.12 12.30 - 13.94 29.04 +0.24
02:50 57 60 74 SSE 31.1 35.8 10 17.72 exactly 17.7 10 14.76 13.94 - 15.58 12 9.84 9.02 - 10.66 29.08 +0.18
03:50 57 60 70 SSE 29.2 33.6 11 18.04 exactly 18.0 8 11.48 10.66 - 12.30 11 14.76 13.94 - 15.58 29.11 +0.13

Detailed Wave Spectra

Time Water Depth Wave Height Spectral Peak Period Average Wave Period Sampling Interval Wave Record
20:00 82 ft 13.02 ft 12.9 sec 7.2 sec 0.6 sec 2400 sec
23:00 82 ft 14.04 ft 10.8 sec 7.4 sec 0.6 sec 2400 sec
00:00 82 ft 12.53 ft 12.1 sec 7.2 sec 0.6 sec 2400 sec
01:00 82 ft 11.48 ft 11.4 sec 6.9 sec 0.6 sec 2400 sec
02:00 82 ft 13.91 ft 10.0 sec 7.7 sec 0.6 sec 2400 sec
03:00 82 ft 12.30 ft 11.4 sec 7.2 sec 0.6 sec 2400 sec
04:00 82 ft 13.02 ft 11.4 sec 7.3 sec 0.6 sec 2400 sec
05:00 82 ft 13.85 ft 11.4 sec 7.5 sec 0.6 sec 2400 sec
06:00 82 ft 12.86 ft 11.4 sec 7.0 sec 0.6 sec 2400 sec
07:00 82 ft 13.75 ft 12.1 sec 7.3 sec 0.6 sec 2400 sec
08:00 82 ft 14.44 ft 11.4 sec 7.3 sec 0.6 sec 2400 sec
09:00 82 ft 15.88 ft 12.9 sec 7.6 sec 0.6 sec 2400 sec
13:00 82 ft 18.83 ft 13.8 sec 8.3 sec 0.6 sec 2400 sec
15:00 82 ft 22.83 ft 14.8 sec 8.9 sec 0.6 sec 2400 sec
16:00 82 ft 25.56 ft 14.8 sec 9.4 sec 0.6 sec 2400 sec
17:00 82 ft 27.23 ft 13.8 sec 9.3 sec 0.6 sec 2400 sec
18:00 82 ft 29.79 ft 14.8 sec 10.0 sec 0.6 sec 2400 sec
19:00 82 ft 30.74 ft 14.8 sec 10.4 sec 0.6 sec 2400 sec
20:00 82 ft 29.33 ft 14.8 sec 9.9 sec 0.6 sec 2400 sec
21:00 82 ft 32.35 ft 13.8 sec 10.5 sec 0.6 sec 2400 sec
22:00 82 ft 28.87 ft 14.8 sec 10.1 sec 0.6 sec 2400 sec
23:00 82 ft 28.38 ft 16.0 sec 10.6 sec 0.6 sec 2400 sec
00:00 82 ft 22.38 ft 14.8 sec 9.0 sec 0.6 sec 2400 sec
01:00 82 ft 23.95 ft 10.8 sec 9.3 sec 0.6 sec 2400 sec
02:00 82 ft 20.21 ft 11.4 sec 8.6 sec 0.6 sec 2400 sec
03:00 82 ft 17.55 ft 10.0 sec 8.1 sec 0.6 sec 2400 sec